Volver al catálogo

STARLINK-31782

ActivoComunicacionesVLEO
NORAD 59606·PAYLOAD·🇺🇸 United States

Lanzado Apr 28, 2024 desde Cape Canaveral Space Force Station

Loading…

Próximos Pases (próximas 24 horas)

TLE

ActualizadoSource: CelesTrak SupGP

Época: Sep 14, 2026, 22:37 UTC

1 59606C 24080F   26257.94284722  .00048005  00000+0  17385-2 0  2579
2 59606  43.0043  52.9632 0001570 276.3928  19.0460 15.27558887    16

Sigue STARLINK-31782 en tiempo real con AllMySat

Download on the App Store